[[{"header":{"parameterUnit":"m.s-1","parameterCategory":1,"la1":30.2991,"la2":30.254,"lo1":-89.0895,"lo2":-89.0444,"dy":0.0017,"dx":0.0017,"nx":28,"ny":28,"refTime":"2024-08-17T03:00:00:Z","depth":0,"parameterNumber":2,"parameterNumberName":"U-component_of_WINDS"},"data":[0,0,0,0,0,0,0,0,0,0,0,0,0,0,0,0,0,0,0,0,0,0,0,0,0,0,0,0,0,0,0,0,0,0,0,0,0,0,0,0,0,0,0,0,0,0,0,0,0,0,0,0,0,0,0,0,0,0,1.7221,1.7222,0,1.7324,1.7325,1.7326,1.7352,1.7351,1.7351,1.735,1.7454,1.7457,1.7461,0,0,0,0,0,0,0,0,0,0,0,0,0,1.7043,1.7046,1.7221,1.7222,1.7223,1.7323,1.7325,1.7326,1.7352,1.7351,1.7351,1.735,1.7453,1.7457,1.7461,0,0,0,0,0,0,0,0,0,0,0,0,0,1.713,1.7047,1.722,1.7248,1.7252,1.7323,1.7325,1.7327,1.7352,1.7351,1.735,1.735,1.7452,1.7456,1.7461,1.7512,0,0,1.7477,1.7479,0,0,0,0,0,0,0,0,1.7125,1.7137,1.7243,1.7246,1.7251,1.7324,1.73,1.7389,1.7353,1.7314,1.735,1.7349,1.7411,1.742,1.7441,1.7517,1.7521,1.7477,1.748,1.7482,1.7484,0,0,0,0,0,0,0,1.7119,1.7133,1.7261,1.7244,1.7249,1.7254,1.7266,1.7317,1.7367,1.7317,1.732,1.7332,1.7413,1.7436,1.7444,1.7523,1.7477,1.7482,1.7485,1.7487,1.7642,1.7643,0,0,0,0,0,0,1.7109,1.7127,1.7258,1.7264,1.7184,1.7258,1.7271,1.7301,1.7366,1.7375,1.7332,1.7332,1.7428,1.7438,1.7447,1.7509,1.7482,1.7487,1.749,1.7641,1.7642,1.7643,0,0,0,0,0,0,1.7105,1.712,1.7254,1.7197,1.7214,1.7263,1.7296,1.7304,1.7327,1.7378,1.7386,1.7347,1.7428,1.744,1.7495,1.7513,1.7489,1.7494,1.764,1.7641,1.7643,1.7633,0,0,0,0,0,0,1.71,1.7119,1.7139,1.7197,1.7217,1.7301,1.7297,1.7307,1.7336,1.7337,1.7393,1.7402,1.7428,1.7487,1.75,1.7519,1.7498,1.7638,1.764,1.7642,1.7632,1.7634,1.7636,0,0,0,0,0,1.7093,1.7133,1.714,1.7156,1.7244,1.7302,1.7313,1.7343,1.7337,1.7357,1.7389,1.74,1.7509,1.7493,1.7507,1.7528,1.7637,1.764,1.7642,1.7631,1.7634,1.7636,0,0,0,0,0,0,1.7076,1.7141,1.715,1.7209,1.725,1.7306,1.7333,1.7345,1.7388,1.7387,1.7421,1.7434,1.7486,1.7513,1.7494,1.7579,1.7573,1.7578,1.756,1.7563,1.7565,1.7557,1.7502,0,0,0,0,0,1.7079,1.7121,1.7176,1.7222,1.7242,1.7284,1.731,1.733,1.7373,1.739,1.7426,1.7467,1.751,1.7538,1.7581,1.7636,1.7648,1.7658,1.766,1.7661,1.7665,1.7694,1.7699,1.7652,1.7651,1.7651,0,0,1.7085,1.7126,1.7151,1.722,1.7254,1.7295,1.7298,1.7343,1.7374,1.7397,1.745,1.7478,1.7526,1.758,1.7606,1.7604,1.7681,1.7664,1.7665,1.7668,1.7697,1.7702,1.7706,1.7653,1.7653,1.7653,0,0,1.7119,1.7155,1.7197,1.723,1.7281,1.7308,1.7318,1.7372,1.7392,1.7446,1.7463,1.75,1.7575,1.7607,1.7634,1.7677,1.7688,1.769,1.77,1.7728,1.7732,1.7735,1.7749,1.7754,1.7694,1.7694,1.7694,0,1.712,1.7185,1.7217,1.726,1.7289,1.7311,1.7353,1.7384,1.7446,1.7465,1.7462,1.7554,1.7588,1.765,1.766,1.7681,1.7692,1.7684,1.7729,1.7733,1.7736,1.775,1.7755,1.7694,1.7694,1.7694,1.7694,0,1.7183,1.7228,1.7256,1.7315,1.7347,1.7389,1.7426,1.7454,1.747,1.7497,1.7551,1.7592,1.7643,1.7659,1.7675,1.7722,1.7719,1.7722,1.7717,1.774,1.7753,1.7759,1.7694,1.7694,1.7694,1.7694,0,0,1.7209,1.7284,1.7293,1.732,1.7377,1.7411,1.7454,1.7503,1.7526,1.7568,1.7603,1.7665,1.7667,1.7697,1.7717,1.7742,1.7771,1.7742,1.7743,1.7744,1.7823,1.782,1.7825,1.7779,1.778,1.7781,1.7819,0,1.7248,1.7326,1.7354,1.7417,1.7458,1.7479,1.7515,1.7553,1.7579,1.7616,1.7645,1.7687,1.7688,1.7706,1.7732,1.7762,1.7787,1.776,1.7811,1.7812,1.7797,1.7833,1.783,1.7863,1.7824,1.7825,1.7826,0,1.7304,1.7346,1.7413,1.7463,1.7481,1.7514,1.7561,1.7596,1.7639,1.7656,1.7689,1.7707,1.775,1.7742,1.7802,1.7782,1.7805,1.7823,1.7825,1.783,1.782,1.7837,1.7875,1.788,1.7835,1.7834,1.7833,0,1.7314,1.7387,1.7436,1.7458,1.7519,1.7541,1.7567,1.7609,1.7636,1.7677,1.7694,1.7739,1.7764,1.7797,1.7826,1.7818,1.7883,1.7878,1.7897,1.7896,1.7909,1.7908,1.7949,1.7925,1.7925,1.7925,1.7925,0,1.7353,1.7393,1.7441,1.7471,1.7515,1.7547,1.759,1.7617,1.7654,1.7689,1.771,1.7742,1.7779,1.7815,1.7838,1.7883,1.7894,1.7908,1.7913,1.7905,1.7903,1.792,1.7918,1.7926,1.7926,1.7926,1.7926,0,1.7371,1.7405,1.746,1.7512,1.7526,1.7556,1.7601,1.763,1.7656,1.77,1.7712,1.7753,1.7796,1.7829,1.7885,1.79,1.7948,1.7954,1.7933,1.7936,1.7953,1.795,1.8006,1.8014,1.7985,1.7985,1.7985,0,1.7394,1.7425,1.7481,1.7505,1.7531,1.7571,1.7599,1.7631,1.7659,1.7709,1.7732,1.7777,1.7814,1.7883,1.7917,1.796,1.7966,1.7983,1.7973,1.7963,1.7965,1.7962,1.7965,1.7984,1.7984,1.7984,1.7984,0,1.743,1.7445,1.7485,1.753,1.7562,1.7599,1.7636,1.7655,1.7694,1.7724,1.7768,1.7797,1.7855,1.7898,1.7944,1.797,1.7983,1.7987,1.7994,1.7985,1.7972,1.7978,1.7935,1.7986,1.7986,1.7985,1.7985,1.7985,1.745,1.7478,1.7521,1.7564,1.7595,1.7629,1.7658,1.7688,1.7726,1.7775,1.7792,1.7837,1.7878,1.7941,1.7967,1.8002,1.8002,1.8012,1.8014,1.8016,1.8014,1.7967,1.8011,1.8011,1.8011,1.8011,1.8011,0,1.7486,1.7514,1.7554,1.7605,1.7638,1.7648,1.7689,1.7716,1.7756,1.7793,1.7829,1.7879,1.7922,1.7959,1.8002,1.8023,1.803,1.8034,1.8032,1.8037,1.8013,1.8002,1.8027,1.8027,1.8027,1.8027,1.8027,1.8027,1.7508,1.7555,1.7575,1.7637,1.7665,1.771,1.7732,1.7763,1.7792,1.7848,1.7883,1.7907,1.7944,1.799,1.8028,1.8038,1.8052,1.8054,1.8065,1.8041,1.8039,1.8037,1.8027,1.8057,1.8057,1.8086,1.8087,1.8087]},{"header":{"parameterUnit":"m.s-1","parameterCategory":1,"la1":30.2991,"la2":30.254,"lo1":-89.0895,"lo2":-89.0444,"dy":0.0017,"dx":0.0017,"nx":28,"ny":28,"refTime":"2024-08-17T03:00:00:Z","depth":0,"parameterNumber":3,"parameterNumberName":"V-component_of_WINDS"},"data":[0,0,0,0,0,0,0,0,0,0,0,0,0,0,0,0,0,0,0,0,0,0,0,0,0,0,0,0,0,0,0,0,0,0,0,0,0,0,0,0,0,0,0,0,0,0,0,0,0,0,0,0,0,0,0,0,0,0,4.0964,4.0964,0,4.0962,4.0962,4.0962,4.0895,4.0893,4.0891,4.0889,4.0888,4.089,4.0891,0,0,0,0,0,0,0,0,0,0,0,0,0,4.0907,4.0909,4.0964,4.0964,4.0964,4.0962,4.0962,4.0962,4.0895,4.0893,4.0891,4.0889,4.0887,4.0889,4.0891,0,0,0,0,0,0,0,0,0,0,0,0,0,4.0921,4.0909,4.0964,4.093,4.0927,4.0962,4.0962,4.0962,4.0895,4.0893,4.089,4.0888,4.0887,4.0889,4.0892,4.0959,0,0,4.0899,4.09,0,0,0,0,0,0,0,0,4.0921,4.0924,4.0935,4.0932,4.0929,4.0926,4.0942,4.0961,4.0896,4.0907,4.0889,4.0886,4.0903,4.0904,4.0909,4.0959,4.0959,4.0899,4.0901,4.0902,4.0902,0,0,0,0,0,0,0,4.092,4.0923,4.0963,4.0935,4.0932,4.0914,4.0914,4.0945,4.092,4.0906,4.0901,4.0902,4.0901,4.0907,4.0909,4.0959,4.0899,4.0901,4.0903,4.0904,4.1061,4.1064,0,0,0,0,0,0,4.0924,4.0923,4.0963,4.0963,4.0918,4.0918,4.0917,4.093,4.0919,4.0915,4.0904,4.0899,4.0904,4.0906,4.0908,4.0984,4.0902,4.0904,4.0905,4.1058,4.1062,4.1065,0,0,0,0,0,0,4.0923,4.0928,4.0963,4.0942,4.0945,4.0921,4.0936,4.0931,4.0937,4.0918,4.0913,4.0915,4.0902,4.0905,4.0946,4.0983,4.0905,4.0907,4.1055,4.1059,4.1063,4.1139,0,0,0,0,0,0,4.0921,4.0928,4.0954,4.0943,4.0946,4.1002,4.0939,4.0933,4.0941,4.0934,4.0927,4.0923,4.09,4.0943,4.0949,4.0985,4.0909,4.1052,4.1057,4.1062,4.1133,4.1145,4.1155,0,0,0,0,0,4.092,4.0976,4.0955,4.0961,4.0978,4.1004,4.1006,4.0978,4.0945,4.097,4.0957,4.0924,4.0979,4.0948,4.0954,4.0992,4.1049,4.1056,4.1061,4.1128,4.1142,4.1155,0,0,0,0,0,0,4.0992,4.0974,4.0951,4.1005,4.1007,4.0993,4.1024,4.0995,4.1006,4.0999,4.0965,4.0964,4.101,4.1005,4.0971,4.1055,4.1008,4.1016,4.1056,4.107,4.1081,4.1081,4.0911,0,0,0,0,0,4.1014,4.1037,4.102,4.1069,4.1071,4.1048,4.1058,4.1036,4.1036,4.1037,4.1027,4.1028,4.1046,4.1058,4.1073,4.1132,4.1128,4.1161,4.1172,4.1182,4.1188,4.1217,4.123,4.1085,4.1085,4.1085,0,0,4.1061,4.1053,4.107,4.1084,4.1082,4.1106,4.1048,4.1077,4.1093,4.1041,4.1078,4.1072,4.1071,4.1121,4.1142,4.1118,4.1228,4.119,4.1197,4.1198,4.1224,4.1238,4.125,4.1089,4.1088,4.1088,0,0,4.1157,4.1155,4.1194,4.1193,4.1192,4.1175,4.1185,4.1175,4.1168,4.1205,4.1166,4.1185,4.1217,4.1217,4.1221,4.1316,4.1284,4.1322,4.138,4.1408,4.142,4.143,4.1461,4.1473,4.1329,4.1329,4.1329,0,4.1214,4.1248,4.1218,4.1248,4.1254,4.1208,4.1247,4.1248,4.1251,4.1256,4.123,4.1266,4.1263,4.1311,4.1334,4.134,4.1348,4.1322,4.1421,4.143,4.1439,4.1469,4.1481,4.1333,4.1333,4.1332,4.1332,0,4.1318,4.1342,4.1375,4.1378,4.1388,4.1423,4.1397,4.1411,4.1388,4.1375,4.1412,4.1406,4.1418,4.1428,4.1407,4.1473,4.1458,4.1427,4.1378,4.1458,4.1485,4.1496,4.134,4.1338,4.1337,4.1336,0,0,4.146,4.1445,4.1457,4.1457,4.1451,4.1469,4.1501,4.1512,4.1523,4.1528,4.1552,4.1579,4.1549,4.1554,4.1533,4.1558,4.1631,4.1523,4.1522,4.1541,4.17,4.1722,4.1736,4.161,4.1613,4.1614,4.17,0,4.1551,4.1603,4.1576,4.1633,4.1653,4.1609,4.1636,4.1635,4.1623,4.1639,4.1626,4.1644,4.1605,4.1607,4.163,4.1617,4.1662,4.1611,4.1632,4.1633,4.1631,4.1751,4.1775,4.1855,4.171,4.1712,4.1713,0,4.1664,4.1671,4.1729,4.1717,4.1724,4.175,4.1756,4.1772,4.177,4.1759,4.1764,4.1736,4.1766,4.1719,4.1759,4.1725,4.1732,4.1727,4.1729,4.1729,4.1677,4.1751,4.1881,4.1892,4.173,4.1729,4.1728,0,4.1758,4.1782,4.1819,4.1821,4.1809,4.1827,4.1823,4.1818,4.1826,4.1832,4.1836,4.1847,4.1852,4.186,4.1836,4.1804,4.1878,4.183,4.1869,4.1869,4.1885,4.1884,4.2015,4.1893,4.1893,4.1893,4.1892,0,4.1861,4.1897,4.1861,4.1884,4.1923,4.1892,4.1931,4.1922,4.1918,4.1938,4.1901,4.192,4.1887,4.1903,4.1884,4.1918,4.1922,4.1913,4.1907,4.1915,4.1916,4.1918,4.1911,4.1896,4.1895,4.1895,4.1894,0,4.1972,4.195,4.1987,4.1971,4.1968,4.1998,4.1984,4.2004,4.199,4.2015,4.2019,4.1996,4.2012,4.1989,4.2004,4.1991,4.2037,4.2024,4.2038,4.2033,4.2073,4.2068,4.2208,4.2224,4.2094,4.2096,4.2097,0,4.2038,4.2065,4.2052,4.2062,4.206,4.2077,4.2084,4.2054,4.2063,4.2061,4.2081,4.2095,4.2104,4.2132,4.2117,4.2127,4.2113,4.2161,4.2114,4.212,4.2111,4.2108,4.211,4.217,4.2171,4.2173,4.2174,0,4.2157,4.2144,4.2156,4.2163,4.2173,4.2178,4.218,4.219,4.2158,4.217,4.2186,4.2193,4.2207,4.222,4.2227,4.2222,4.2192,4.2189,4.2198,4.2205,4.2211,4.2206,4.2062,4.2185,4.2184,4.2183,4.2183,4.2182,4.2247,4.2267,4.2261,4.2274,4.2272,4.2275,4.2292,4.2279,4.2291,4.2299,4.2281,4.2301,4.2297,4.2302,4.2301,4.2316,4.2295,4.2309,4.2312,4.2315,4.232,4.2211,4.2317,4.2317,4.2316,4.2316,4.2316,0,4.2361,4.2355,4.2368,4.237,4.2381,4.2352,4.2352,4.2363,4.2381,4.2379,4.2388,4.2405,4.2418,4.2403,4.2413,4.2427,4.2414,4.2431,4.2428,4.2427,4.2339,4.2329,4.2441,4.2441,4.2441,4.2441,4.2441,4.2441,4.2422,4.2455,4.2441,4.2472,4.2465,4.2484,4.2486,4.2487,4.2485,4.2506,4.2516,4.2506,4.2499,4.2507,4.2517,4.2512,4.2516,4.2538,4.2528,4.2446,4.2434,4.2422,4.2412,4.254,4.254,4.2614,4.2615,4.2615]}]]